Flag for Poland Weather past 2 weeks in Elbląg, Poland

Now
57 °F

Clear.


Feels Like: 57 °F
Forecast: 55 / 73 °F
Wind: 3 mph from North

Location: Hel

Current Time: Jul 2, 2015 at 1:23:54 AM

Latest Report: Jul 2, 2015 at 12:00 AM


Visibility: 16 mi

Pressure: 30.36 "Hg

Humidity: 93%

Dew point: 55 °F

Location of ElblągLocation

Historic Weather in Elbląg — Graph

°F

Elbląg temperature yesterday

Maximum temperature yesterday: 66 °F (at 2:00 PM)
Minimum temperature yesterday: 57 °F (at 4:00 AM)
Average temperature yesterday: 62 °F

Past Weeks' High & Low Weather Summary

 TemperatureHumidityPressure
High71 °F (Jun 30, 2:00 PM)96% (Jun 23, 6:00 AM)30.35 "Hg (Jun 23, 6:00 AM)
Low51 °F (Jun 21, 5:00 AM)47% (Jun 30, 2:00 PM)29.59 "Hg (Jun 23, 7:00 AM)
Average59 °F80%29.98 "Hg
* Reported Midnight between Jun 16 and Jun 17 — Jul 1 11:00 PM, Elbląg, Weather by CustomWeather, © 2015

Note: Actual official high and low records may vary slightly from our data, if they occured in-between our weather recording intervals... More about our weather records

Advertising

Elbląg weather history for previous 24 hours

 ConditionsComfort  
Time TempWeatherWind HumidityBarometerVisibility
11:00 PM
Wed, Jul 1
58 °FClear.3 mph92%30.35 "Hg16 mi
10:00 PM59 °FClear.3 mph90%30.34 "Hg16 mi
9:00 PM61 °FSunny.3 mph87%30.33 "Hg16 mi
8:00 PM62 °FSunny.3 mph82%30.32 "Hg16 mi
7:00 PM64 °FSunny.3 mph72%30.32 "Hg16 mi
6:00 PM65 °FSunny.5 mph71%30.31 "Hg16 mi
5:00 PM66 °FPassing clouds.5 mph75%30.31 "Hg16 mi
4:00 PM65 °FPassing clouds.5 mph74%30.31 "Hg16 mi
3:00 PM66 °FPassing clouds.5 mph72%30.31 "Hg16 mi
2:00 PM66 °FPassing clouds.3 mph70%30.31 "Hg16 mi
1:00 PM64 °FPartly sunny.5 mph74%30.31 "Hg12 mi
12:00 PM64 °FOvercast.5 mph76%30.30 "Hg12 mi
11:00 AM64 °FOvercast.3 mph77%30.29 "Hg12 mi
10:00 AM63 °FPartly sunny.6 mph81%30.27 "Hg12 mi
9:00 AM65 °FPartly sunny.5 mph76%30.24 "Hg12 mi
8:00 AM62 °FPartly sunny.3 mph83%30.24 "Hg12 mi
7:00 AM60 °FPartly sunny.3 mph87%30.23 "Hg12 mi
6:00 AM58 °FScattered clouds.3 mph89%30.22 "Hg11 mi
5:00 AM57 °FScattered clouds.3 mph90%30.21 "Hg11 mi
4:00 AM57 °FPassing clouds.3 mph90%30.19 "Hg11 mi
3:00 AM58 °FClear.5 mph88%30.19 "Hg12 mi
2:00 AM58 °FClear.5 mph87%30.19 "Hg12 mi
1:00 AM59 °FPassing clouds.5 mph86%30.19 "Hg12 mi
Weather by CustomWeather, © 2015

See weather overviewHow to use our weather pages